Wind_Speed
27 27 27 26 26 26 25 25 25 26 26 27 28 28 29 29 30 30 31 31 32 33 33 34 34 35 36 36 37 38 38 38 39 39 39 39 39 40 40 41 41 41 42
29 29 28 27 27 27 26 26 26 27 28 28 29 30 30 30 31 31 32 33 33 34 34 35 35 36 37 38 38 39 39 40 40 40 41 41 42 42 43 43 43 44 44
31 30 30 29 28 28 28 28 28 29 29 29 30 30 31 32 32 33 33 34 34 35 35 36 36 37 38 39 40 40 41 41 41 42 43 43 44 44 45 46 46 46 47
32 32 31 30 30 30 30 29 29 30 30 31 31 31 32 32 33 34 34 35 35 36 36 37 38 38 39 40 41 42 42 42 43 44 44 45 46 46 47 48 48 49 49
33 33 32 31 31 30 31 31 31 31 31 32 32 32 33 34 34 34 35 36 36 37 37 38 39 39 41 42 42 43 43 44 45 45 46 47 48 48 49 50 50 50 51
34 34 33 32 32 31 31 31 32 32 33 33 33 33 34 34 35 36 36 37 37 38 38 39 40 41 42 43 43 44 45 45 46 47 48 49 49 50 51 51 52 52 52
35 34 34 34 33 33 33 33 33 34 34 34 34 34 34 35 35 36 37 38 39 39 40 41 42 42 43 43 44 44 45 46 47 48 49 50 51 52 52 53 53 53 52
36 35 35 35 34 34 34 34 34 34 35 35 35 35 35 36 36 37 38 39 40 41 42 42 42 43 44 44 45 46 47 47 48 50 50 51 52 53 53 53 53 53 54
37 36 36 35 35 35 35 35 35 35 35 36 36 36 37 37 37 37 38 40 41 42 42 42 42 43 44 45 46 47 47 48 49 50 50 51 52 52 52 52 53 53 54
39 38 37 36 36 36 35 35 36 36 36 37 37 38 38 38 38 38 39 40 41 41 42 42 42 43 44 45 46 47 48 49 49 49 50 51 51 51 52 52 52 52 52
40 39 38 38 37 36 36 36 37 37 37 37 38 38 38 39 40 40 40 40 40 41 41 42 42 43 44 45 46 47 48 48 48 49 49 50 50 50 50 51 51 51 51
41 40 40 39 38 37 37 37 37 37 38 38 38 39 40 40 41 41 40 39 39 39 40 42 43 43 44 45 46 47 48 47 48 48 48 48 48 49 50 50 50 50 50
41 41 41 39 38 38 38 38 37 37 38 38 39 39 40 40 40 40 40 39 38 39 40 42 43 44 44 45 46 47 46 47 47 48 47 47 48 49 49 49 49 49 50
41 41 40 39 38 38 38 38 38 38 38 38 38 39 40 40 40 40 40 40 39 39 40 42 43 44 45 46 47 46 47 47 47 47 47 48 49 49 49 48 49 49 49
41 41 40 39 38 38 38 38 38 38 39 39 39 39 40 40 40 40 40 41 40 40 40 41 43 44 46 46 46 47 47 47 47 48 48 49 49 48 48 48 48 48 47
42 41 40 39 39 38 38 38 38 38 39 39 40 40 40 39 39 40 40 41 41 41 41 42 43 44 46 46 46 47 47 47 48 49 49 49 48 48 48 48 47 46 45
43 42 41 40 39 39 39 39 39 40 40 40 40 40 39 39 39 39 40 40 41 42 43 43 44 45 46 46 47 47 48 49 49 49 49 49 48 48 48 47 45 44 42
42 42 41 40 40 39 40 40 39 39 39 40 40 40 39 39 39 39 40 40 41 43 43 43 44 46 46 46 47 48 49 49 49 49 49 49 48 48 47 45 43 42 41
43 43 42 41 41 41 40 39 39 39 39 40 40 39 39 39 39 40 40 41 42 43 44 44 45 46 46 47 47 48 48 49 49 50 50 49 48 47 45 43 42 41 41
43 42 42 41 41 41 40 40 40 39 39 39 39 39 39 39 40 40 41 42 42 43 44 45 46 46 47 47 48 48 48 48 48 48 48 48 46 45 43 42 42 41 41
42 42 42 41 41 40 40 41 41 40 40 39 39 38 39 39 40 40 41 42 42 43 45 46 46 47 47 47 48 48 48 47 47 47 46 45 44 43 42 41 41 40 39
42 41 40 41 41 40 40 40 40 40 39 39 39 39 39 40 40 40 41 42 43 44 45 46 46 47 47 48 48 48 48 47 44 44 43 41 41 41 40 40 39 39 37
41 41 40 40 39 39 39 39 39 39 39 39 39 39 39 39 40 40 42 43 43 44 45 46 47 47 47 47 47 47 46 44 42 41 40 39 39 39 38 38 37 36 34
41 40 39 39 38 37 37 38 38 38 38 39 39 39 39 39 40 40 41 42 44 45 45 45 47 47 47 46 46 45 43 41 40 39 38 38 37 37 36 35 35 33 32
40 39 38 38 37 37 37 37 37 37 37 38 38 39 39 40 40 41 42 43 44 44 44 45 46 46 45 45 44 42 40 38 36 36 37 36 34 34 34 33 32 31 30
39 38 38 37 37 37 37 37 37 37 37 38 38 39 39 40 40 41 42 43 43 43 44 44 44 44 44 42 41 39 37 35 34 35 34 33 33 32 30 30 30 29 28
Wind_Direction
263 265 267 270 272 274 276 278 280 281 283 285 288 290 292 293 293 294 294 294 294 294 294 295 296 296 295 294 293 292 291 290 289 288 288 288 288 288 288 288 288 287 286
261 263 266 267 270 272 275 276 279 281 283 285 288 290 291 292 293 293 293 294 294 294 294 295 295 296 296 295 294 293 292 290 290 289 289 289 289 288 288 288 288 287 286
260 262 264 265 268 271 273 275 278 280 283 286 288 290 292 292 292 292 293 294 295 294 295 295 296 296 296 296 295 294 293 292 291 290 289 289 289 289 288 288 288 287 286
260 261 263 264 266 270 272 275 278 281 283 286 289 291 292 293 293 293 294 294 294 295 295 296 296 296 296 296 295 295 294 293 292 291 290 289 289 289 289 288 288 287 286
259 261 262 264 267 270 272 274 278 281 284 286 288 291 292 293 293 294 294 294 294 295 296 296 297 297 297 296 296 295 294 293 292 292 291 290 290 290 290 289 289 288 287
258 260 262 264 266 269 272 274 277 280 283 285 287 290 291 293 294 295 295 294 295 295 296 297 297 298 298 296 296 296 295 294 293 292 292 291 291 291 290 290 289 288 287
258 260 262 264 266 268 271 274 277 280 282 284 286 288 290 292 293 294 295 295 296 296 297 297 297 298 298 297 297 296 296 295 295 294 293 292 291 291 291 290 289 289 288
258 260 262 264 266 268 271 274 277 279 281 283 285 287 289 291 293 293 295 296 296 297 297 297 298 298 298 298 297 297 297 296 296 295 294 294 293 292 291 290 290 290 290
258 260 262 264 266 269 271 274 276 278 280 283 285 286 289 291 292 293 295 296 297 298 297 298 299 299 300 300 299 299 299 298 298 297 296 296 295 294 293 292 291 291 290
258 261 263 265 267 269 271 274 276 278 280 282 284 287 289 291 292 293 295 297 297 297 298 299 300 301 301 301 302 301 301 300 300 299 299 298 298 297 296 294 293 292 291
259 261 263 265 267 269 271 274 276 278 279 282 284 287 288 291 292 293 295 296 297 298 299 300 301 302 303 304 304 304 303 303 303 302 302 300 300 299 298 297 296 294 293
259 261 263 264 266 268 270 273 276 278 279 282 284 286 288 290 292 293 295 295 296 298 300 301 302 303 304 305 306 306 305 304 304 304 304 303 302 301 301 299 297 296 295
259 260 261 263 265 267 269 272 275 277 280 282 285 287 289 291 292 293 294 295 296 297 299 300 302 304 305 306 307 307 307 306 306 306 306 305 304 304 302 301 299 298 297
258 259 260 262 264 267 269 271 274 277 280 282 284 287 289 291 292 293 294 295 296 297 299 300 301 303 305 307 308 307 307 308 308 308 307 306 306 304 303 302 301 300 298
257 259 260 262 264 266 268 270 273 276 278 281 283 286 289 291 292 293 294 296 296 297 298 300 302 304 306 307 307 307 308 309 309 309 309 308 307 305 304 303 302 301 300
256 258 259 261 264 266 268 270 272 274 278 280 282 285 288 290 291 293 294 295 297 298 300 302 303 305 307 306 306 307 308 308 309 309 309 309 308 307 305 305 304 303 302
256 258 259 261 263 265 267 270 272 274 277 280 282 285 287 289 291 292 293 295 297 299 301 302 304 306 307 306 307 308 308 309 309 309 309 309 308 307 306 305 305 304 302
255 256 258 261 262 265 267 270 272 274 276 279 281 283 286 288 289 291 293 295 297 299 301 303 305 306 306 307 308 309 309 309 309 309 308 308 308 308 307 305 305 305 304
254 256 258 260 262 264 266 269 271 273 276 279 281 282 284 286 288 290 293 295 297 299 301 303 305 306 306 307 308 309 310 309 309 308 308 307 307 308 308 307 307 307 305
253 256 258 260 261 264 266 267 270 273 276 278 280 281 283 285 287 289 291 294 296 299 301 303 305 306 306 307 308 309 309 309 309 308 308 308 308 308 308 307 308 308 308
253 255 258 260 262 265 266 268 270 272 275 277 278 280 282 285 287 289 291 293 296 298 301 303 304 306 306 307 308 309 309 309 308 308 308 308 308 309 308 308 308 308 308
253 255 258 260 262 264 266 268 269 272 274 276 278 280 282 284 287 290 292 294 297 300 302 304 305 307 308 308 309 309 309 309 309 309 309 309 310 311 310 310 310 310 311
252 254 257 259 261 264 266 267 269 272 274 276 278 280 282 284 286 289 292 295 298 301 304 305 306 308 309 309 310 310 310 310 310 311 311 312 313 313 312 312 313 313 314
251 253 256 258 259 262 264 267 269 272 275 277 278 280 282 285 287 290 293 295 298 301 303 305 307 308 309 309 311 311 311 311 311 311 312 314 314 315 314 314 315 316 315
250 252 254 256 259 261 264 267 270 273 276 277 279 281 283 285 288 290 293 296 298 301 303 305 306 308 309 310 311 311 311 311 310 311 312 314 315 316 316 316 316 316 316
249 250 253 255 258 261 264 267 271 274 276 278 280 282 284 286 288 291 294 296 299 301 303 305 306 308 309 310 310 311 311 311 311 312 313 314 315 316 317 318 318 318 318
Height
5836 5836 5837 5837 5837 5836 5836 5835 5835 5834 5833 5831 5830 5828 5826 5824 5821 5819 5817 5814 5812 5809 5806 5804 5801 5798 5795 5792 5790 5787 5784 5781 5778 5775 5773 5770 5767 5765 5762 5760 5757 5754 5752
5830 5831 5831 5831 5831 5831 5831 5830 5829 5828 5827 5826 5824 5822 5820 5818 5815 5813 5810 5808 5805 5802 5799 5796 5794 5791 5788 5784 5781 5778 5775 5772 5769 5766 5763 5760 5758 5755 5752 5749 5747 5744 5741
5824 5825 5825 5825 5825 5825 5825 5824 5823 5822 5821 5820 5818 5816 5814 5811 5809 5806 5804 5801 5798 5795 5792 5789 5786 5783 5780 5776 5773 5769 5766 5762 5759 5756 5753 5751 5748 5745 5742 5739 5736 5733 5730
5818 5818 5819 5819 5819 5819 5819 5818 5817 5816 5815 5813 5811 5809 5807 5805 5802 5799 5797 5794 5791 5788 5785 5781 5778 5775 5771 5767 5764 5760 5756 5753 5750 5746 5743 5740 5737 5734 5731 5728 5724 5721 5718
5811 5811 5812 5812 5813 5812 5812 5812 5811 5810 5808 5807 5805 5803 5800 5798 5795 5792 5789 5786 5783 5780 5777 5774 5770 5766 5762 5758 5754 5750 5746 5743 5739 5736 5732 5729 5726 5722 5719 5715 5712 5708 5705
5803 5804 5805 5805 5806 5806 5805 5805 5804 5803 5802 5800 5798 5796 5793 5790 5787 5784 5781 5778 5775 5772 5768 5765 5761 5757 5753 5749 5744 5740 5736 5732 5728 5724 5721 5717 5713 5710 5706 5702 5699 5695 5691
5796 5797 5798 5798 5798 5799 5798 5798 5797 5796 5795 5793 5791 5789 5786 5783 5780 5777 5773 5770 5767 5763 5760 5756 5752 5747 5743 5739 5734 5730 5726 5721 5717 5713 5709 5705 5701 5697 5693 5689 5685 5681 5677
5788 5789 5790 5790 5791 5791 5791 5791 5790 5788 5787 5785 5784 5782 5780 5777 5773 5770 5766 5762 5758 5755 5750 5746 5742 5738 5733 5729 5724 5719 5715 5710 5705 5701 5696 5692 5687 5683 5679 5674 5670 5666 5662
5780 5781 5782 5782 5783 5783 5783 5783 5782 5781 5779 5777 5775 5774 5771 5769 5766 5762 5758 5754 5750 5745 5741 5737 5732 5728 5723 5718 5714 5709 5704 5699 5694 5689 5684 5679 5674 5669 5665 5661 5656 5652 5648
5772 5773 5773 5774 5775 5775 5775 5774 5774 5772 5771 5769 5767 5765 5763 5760 5758 5755 5751 5746 5741 5736 5732 5728 5723 5719 5714 5708 5703 5698 5693 5687 5682 5677 5672 5667 5661 5656 5651 5647 5642 5638 5633
5763 5764 5765 5766 5766 5767 5766 5766 5765 5764 5762 5761 5759 5756 5754 5751 5748 5745 5742 5738 5733 5728 5723 5719 5715 5710 5704 5699 5693 5688 5682 5676 5671 5665 5660 5655 5649 5644 5638 5633 5628 5624 5619
5754 5755 5756 5757 5757 5758 5758 5757 5756 5755 5754 5752 5750 5748 5745 5743 5740 5736 5733 5730 5725 5721 5715 5710 5706 5701 5695 5690 5684 5678 5671 5666 5660 5655 5649 5643 5637 5632 5626 5621 5615 5610 5605
5745 5746 5747 5748 5749 5749 5749 5748 5748 5747 5745 5743 5741 5739 5736 5733 5730 5727 5724 5721 5717 5713 5708 5703 5697 5692 5686 5681 5674 5668 5662 5656 5650 5644 5638 5632 5626 5620 5614 5608 5603 5597 5592
5735 5737 5738 5739 5740 5740 5740 5739 5739 5738 5736 5734 5732 5730 5727 5724 5721 5718 5715 5712 5709 5706 5701 5695 5689 5683 5678 5672 5665 5659 5653 5647 5640 5634 5628 5621 5615 5609 5602 5596 5591 5585 5579
5726 5727 5729 5730 5730 5731 5731 5730 5730 5729 5727 5725 5723 5721 5718 5715 5712 5709 5706 5703 5700 5696 5693 5687 5681 5675 5669 5663 5656 5650 5644 5637 5630 5624 5617 5610 5604 5597 5591 5585 5579 5573 5567
5716 5718 5719 5720 5721 5721 5721 5721 5720 5719 5718 5716 5714 5712 5709 5706 5703 5700 5697 5693 5690 5686 5683 5678 5672 5666 5660 5654 5647 5641 5634 5628 5621 5614 5607 5600 5593 5586 5580 5574 5567 5561 5555
5706 5708 5710 5711 5711 5712 5712 5712 5711 5710 5709 5707 5705 5703 5700 5697 5694 5691 5688 5685 5681 5677 5673 5669 5663 5657 5651 5645 5638 5631 5625 5618 5611 5603 5596 5589 5582 5576 5569 5562 5556 5550 5544
5696 5698 5700 5701 5702 5702 5702 5702 5701 5700 5699 5698 5696 5693 5691 5689 5686 5683 5680 5676 5672 5668 5664 5660 5654 5648 5641 5635 5629 5622 5615 5607 5600 5593 5585 5578 5571 5564 5558 5552 5546 5540 5534
5686 5688 5690 5691 5692 5692 5693 5693 5692 5691 5690 5689 5687 5684 5682 5680 5677 5674 5671 5667 5663 5659 5654 5649 5644 5638 5632 5625 5619 5613 5605 5597 5589 5582 5575 5568 5561 5554 5547 5541 5536 5530 5524
5676 5678 5680 5681 5682 5682 5683 5683 5682 5682 5681 5679 5677 5675 5673 5671 5668 5665 5662 5658 5654 5650 5645 5640 5635 5629 5622 5616 5609 5603 5596 5588 5580 5572 5564 5557 5551 5544 5537 5532 5526 5520 5514
5666 5668 5669 5671 5672 5672 5673 5673 5673 5672 5671 5669 5668 5666 5664 5662 5659 5656 5653 5649 5645 5640 5635 5630 5625 5619 5612 5606 5599 5592 5585 5578 5571 5562 5555 5548 5542 5535 5528 5522 5516 5511 5505
5656 5658 5660 5661 5662 5663 5663 5663 5663 5662 5661 5660 5658 5657 5655 5652 5650 5646 5643 5639 5635 5630 5625 5620 5614 5608 5602 5595 5588 5581 5573 5567 5562 5555 5547 5540 5533 5526 5520 5514 5508 5502 5496
5646 5648 5650 5651 5652 5653 5653 5653 5653 5652 5651 5650 5649 5648 5646 5643 5640 5637 5634 5630 5625 5620 5615 5610 5604 5597 5591 5585 5578 5571 5563 5556 5549 5544 5538 5532 5525 5518 5512 5505 5499 5494 5488
5636 5638 5640 5641 5642 5643 5643 5644 5643 5643 5642 5641 5640 5638 5636 5633 5631 5628 5625 5621 5616 5611 5605 5600 5593 5587 5580 5573 5567 5561 5554 5548 5541 5534 5529 5524 5518 5512 5505 5498 5492 5487 5481
5626 5628 5630 5631 5633 5634 5634 5634 5634 5633 5633 5631 5630 5628 5626 5624 5621 5619 5615 5611 5606 5601 5595 5589 5583 5576 5570 5563 5557 5551 5546 5540 5535 5529 5522 5517 5512 5506 5500 5494 5487 5481 5475
5616 5618 5620 5622 5623 5624 5625 5625 5625 5625 5624 5622 5621 5619 5617 5614 5611 5608 5605 5601 5596 5591 5586 5580 5573 5567 5561 5555 5548 5543 5537 5532 5527 5522 5516 5511 5505 5499 5495 5489 5482 5476 5471